Location: La Blinière-Rogat
(48.0333°N, 0.9000°W)
Time: 08:25:50
(UTC+00:00)

Daily predictions for brighter satellites

Satellite Brightness Start Highest point End
(mag) Time Altitude Azimuth Time Altitude Azimuth Time Altitude Azimuth
Cosmos 1300 3.9 20:45:24 10° NNW 20:49:01 43° W 20:52:37 10° SSW
Resurs 01 Rocket 2.2 20:45:01 10° S 20:49:24 59° W 20:53:50 10° NNW
Helios 1A Rocket 3.6 20:51:54 10° SE 20:55:42 40° ENE 20:59:33 10° N
Cosmos 1624 Rocket 4.0 20:50:38 10° S 20:55:48 64° ESE 21:00:58 10° NNE
CZ-4B R/B 1.2 20:53:10 10° N 20:56:03 76° WNW 20:58:55 10° SSW
Cosmos 1190 Rocket 4.2 20:51:39 10° NNW 20:57:00 79° WSW 21:02:17 10° SSE
Lacrosse 5 rocket 1.3 20:54:04 10° WNW 20:57:52 70° SW 21:01:54 10° SE
Cosmos 407 Rocket 4.2 20:54:55 10° NNW 20:59:56 50° WSW 21:04:52 10° S
Cosmos 1271 Rocket 3.2 20:56:34 10° N 21:00:29 50° ENE 21:04:20 10° SSE
NOSS 2-1 (E) 4.2 21:00:35 10° NW 21:05:01 66° NE 21:11:17 10° SE
SPOT 3 Rocket 3.6 21:00:24 10° SSE 21:05:35 87° ENE 21:10:50 10° NNW
ERS-1 Rocket 3.3 21:03:49 10° SSE 21:08:43 55° ENE 21:13:39 10° N
RESURS DK-1 3.9 21:05:42 10° N 21:09:13 26° NE 21:12:42 10° ESE
Cosmos 2056 Rocket 3.6 21:11:07 10° SSW 21:16:30 88° WNW 21:21:58 10° NNE
Cosmos 1025 Rocket 3.2 21:12:45 10° SSW 21:17:00 73° W 21:21:19 10° N
CZ-2C R/B 4.3 21:12:44 10° NNE 21:17:04 39° E 21:21:17 10° SSE
Cosmos 1455 Rocket 3.9 21:14:59 10° NNW 21:19:11 49° W 21:23:21 10° SSW
Cosmos 2315 Rocket 4.2 21:13:13 10° SSW 21:19:34 80° W 21:25:54 10° N
ARIANE 5 R/B 3.4 21:18:10 12° SE 21:21:57 41° ENE 21:26:08 10° N
Cosmos 1420 Rocket 4.0 21:19:07 10° SSW 21:24:22 88° ESE 21:29:42 10° NNE
Cosmos 676 Rocket 4.2 21:19:09 10° NNW 21:24:29 76° WSW 21:29:29 11° SSE
SL-8 R/B 3.7 21:22:16 10° W 21:27:06 86° N 21:31:57 10° E
Cosmos 1455 2.4 21:27:56 10° NNW 21:31:44 72° W 21:35:18 11° S
USA 245 4.2 21:28:47 10° S 21:33:25 52° WSW 21:37:10 10° NNW
Cosmos 2074 Rocket 4.1 21:28:23 10° N 21:34:40 69° ENE 21:40:08 14° SSE
Meteor 2-5 Rocket 4.5 21:33:42 10° SSW 21:39:06 54° WNW 21:44:34 10° N
USA 32 4.3 21:33:58 10° SSW 21:39:10 71° W 21:44:24 10° N
Ariane Rocket 4.5 21:35:11 10° SSW 21:39:43 32° W 21:44:18 10° NNW
Cosmos 1607 4.2 21:35:50 10° SW 21:42:03 73° NW 21:48:15 10° NE
TSX-5 4.4 21:39:00 10° S 21:43:14 55° ESE 21:48:45 10° NE
USA 267 3.4 21:39:33 10° ENE 21:45:52 49° SE 21:52:09 10° SSW
NOSS 2-1 (C) 4.3 21:42:03 10° NW 21:46:34 62° SW 21:51:27 17° SSE
Cosmos 1536 Rocket 3.5 21:43:14 11° S 21:47:23 80° E 21:51:45 10° NNE
Cosmos 2228 3.1 21:45:02 10° N 21:49:15 59° ENE 21:52:05 20° SSE
Tiangong 2.7 21:47:50 10° WSW 21:50:11 19° SSW 21:50:37 19° S
SPOT 5 3.1 21:46:23 12° S 21:50:24 55° W 21:54:41 10° NNW
Cosmos 1850 Rocket 4.0 21:46:19 10° NNW 21:51:33 76° ENE 21:55:21 19° SSE
Cosmos 1980 Rocket 3.5 21:46:35 10° NNW 21:51:39 31° NE 21:56:37 10° ESE
Nadezhda 1 Rocket 4.2 21:47:09 15° SSE 21:52:06 53° E 21:58:00 10° NNE
Cosmos 1606 Rocket 4.1 21:50:07 10° N 21:54:17 44° ENE 21:56:56 20° SE
Cosmos 1703 3.2 21:51:23 16° S 21:54:21 72° E 21:58:12 10° NNE
Cosmos 1697 Rocket 3.1 21:48:57 10° NNW 21:54:30 55° ENE 21:58:44 17° SE
NOSS 2-1 (D) 4.5 21:52:24 10° NW 21:56:56 53° SW 22:01:33 18° SSE
Cosmos 2084 4.3 21:55:37 10° WSW 21:59:19 46° NW 22:03:06 10° NNE
Cosmos 2154 Rocket 4.0 21:53:15 10° N 21:59:30 74° E 22:04:14 18° SSE
ASTRO F (AKARI) 4.5 21:58:48 22° SSE 22:00:59 86° WSW 22:04:33 10° NNW
USA 276 1.8 21:59:58 10° WSW 22:02:58 86° SSE 22:05:59 10° ENE
Cosmos 1656 3.8 21:58:33 10° NNW 22:03:59 68° WSW 22:07:55 19° SSE
Cosmos 1328 4.4 22:04:05 23° SSE 22:06:07 42° E 22:09:55 10° NNE
Cosmos 1331 Rocket 4.2 22:04:06 17° S 22:08:04 52° ESE 22:13:13 10° NNE
X-37B 0.6 22:09:46 10° WSW 22:12:29 44° S 22:12:57 39° SE
Meteor 1-21 Rocket 4.2 22:10:01 16° S 22:14:29 76° E 22:20:09 10° NNE
Cosmos 1408 3.8 22:15:25 22° ESE 22:16:14 24° E 22:19:04 10° NE
Lacrosse 5 2.7 22:12:46 10° WNW 22:17:26 36° SW 22:20:08 21° S
Cosmos 1452 Rocket 3.6 22:12:48 10° SSW 22:18:04 80° WNW 22:23:22 10° NNE
Cosmos 1726 Rocket 3.7 22:14:49 10° N 22:19:06 61° ENE 22:21:23 26° SSE
SAR-Lupe-4 3.7 22:15:53 10° NNE 22:19:26 57° ESE 22:21:00 29° SSE
Terra 2.7 22:16:55 15° SSW 22:20:35 43° W 22:25:09 10° NNW
ATLAS 2AS CENTAUR R/B 3.6 22:14:25 10° NW 22:20:49 38° WSW 22:25:25 17° S
USA 234 3.4 22:14:25 11° ESE 22:20:51 77° NNE 22:27:25 10° NW
Cosmos 1833 Rocket 2.6 22:17:42 13° SSW 22:22:41 69° ESE 22:28:17 10° NNE
SL-8 Rocket 4.4 22:23:49 10° N 22:29:55 51° ENE 22:33:46 22° SE
Cosmos 1110 Rocket 4.0 22:25:42 14° SSW 22:30:14 85° ESE 22:35:34 10° NNE
Cosmos 2360 4.2 22:26:54 10° NNW 22:32:40 84° WSW 22:36:09 25° SSE
Cosmos 1900 4.4 22:28:19 10° NW 22:33:33 84° NE 22:36:32 25° SE
Cosmos 1302 Rocket 4.4 22:31:56 26° SSE 22:34:25 43° ESE 22:39:20 10° NE
ALOS 2 4.0 22:32:45 18° ESE 22:35:10 29° ENE 22:38:56 10° N
SAR-Lupe-1 4.1 22:31:59 10° NNE 22:35:35 80° WNW 22:37:27 26° SSW
Lacrosse 5 rocket 3.6 22:34:56 10° WSW 22:36:19 12° WSW 22:37:26 11° SW
Cosmos 967 Rocket 4.5 22:34:40 12° SSW 22:40:43 68° ESE 22:47:10 10° NE
Cosmos 2218 Rocket 4.4 22:35:44 10° N 22:42:01 54° ENE 22:45:53 24° SE
Cosmos 2082 Rocket 2.6 22:42:48 26° SSE 22:45:37 45° ESE 22:51:02 10° NE
Cosmos 2366 rocket 4.3 22:39:34 10° N 22:45:48 57° ENE 22:49:34 24° SSE
RESURS DK-1 3.2 22:43:27 10° NW 22:47:19 39° WSW 22:48:58 27° SSW
Cosmos 2341 Rocket 4.0 22:43:57 10° N 22:50:20 84° E 22:54:07 26° SSE
Cosmos 2058 Rocket 3.0 22:48:43 10° N 22:53:09 81° E 22:55:04 34° SSE
Spot 4 3.9 22:52:43 30° SSE 22:55:03 70° ENE 22:59:50 10° N
Cosmos 1892 Rocket 3.5 22:53:33 28° SSW 22:55:51 82° W 23:00:15 10° N
ARIANE 5 R/B 4.4 22:55:42 14° SW 22:58:33 24° W 23:02:09 10° NW
Cosmos 1825 2.9 22:58:50 33° ESE 22:59:37 38° E 23:03:07 10° NNE
Cosmos 2360 Rocket 4.5 22:58:41 10° N 23:02:38 19° NE 23:06:34 10° E
Cosmos 192 4.2 23:00:39 26° SSW 23:03:26 84° ESE 23:08:22 10° NNE
Cosmos 968 Rocket 3.4 22:59:38 10° NNW 23:04:51 83° WSW 23:07:22 32° SSE
ERS-2 3.8 23:02:58 10° NE 23:05:38 19° E 23:05:53 19° E
Cosmos-2242 4.5 23:02:48 10° NNE 23:06:25 26° ENE 23:08:16 19° ESE
GP-B 3.4 23:04:45 10° N 23:09:08 61° W 23:11:19 28° SSW
SL-8 R/B 3.8 23:04:51 10° W 23:09:32 53° SSW 23:11:22 33° SSE
Cosmos 1959 Rocket 4.4 23:04:13 10° N 23:10:22 81° E 23:13:40 29° SSE
Cosmos 1626 Rocket 3.9 23:10:22 36° SE 23:11:45 50° E 23:15:57 10° NNE
Cosmos 1869 3.3 23:12:09 10° N 23:16:01 68° E 23:17:08 43° SSE
BREEZE-M DEB (TANK) 3.6 23:13:16 10° W 23:16:19 80° N 23:27:35 10° E
Meteor 1-27 4.1 23:12:18 10° N 23:17:55 84° ENE 23:20:39 32° SSE
ASTEX 1 4.2 23:14:17 10° N 23:19:04 46° WNW 23:22:15 20° SW
Cosmos 864 Rocket 4.4 23:14:07 10° N 23:20:19 86° W 23:23:39 30° S
Cosmos 2181 Rocket 3.9 23:20:12 27° S 23:23:43 88° W 23:29:58 10° N
COSMOS 2406 3.4 23:19:53 17° SW 23:24:27 71° WNW 23:30:14 10° NNE
ADEOS Rocket 3.5 23:20:28 26° SSE 23:24:52 82° ENE 23:32:34 10° NNW
Cosmos 1633 3.3 23:25:15 35° ESE 23:25:38 36° E 23:28:51 10° NNE
Cosmos 2369 4.0 23:21:54 10° NW 23:27:30 55° WSW 23:30:04 31° S
SL-16 R/B 3.1 23:23:32 10° NNW 23:28:58 44° NE 23:33:08 17° ESE
USA 267 3.6 23:22:34 10° NE 23:29:04 68° NNW 23:35:33 10° WSW
Okean 1-7 Rocket 3.5 23:27:28 38° S 23:29:09 89° E 23:33:40 10° N
Cosmos 1892 3.4 23:30:47 31° SW 23:32:11 47° WNW 23:35:51 10° N
Cosmos 1980 Rocket 2.5 23:30:24 10° NW 23:35:56 53° WSW 23:38:22 32° S
SJ 16-02 2.8 23:32:38 10° N 23:36:37 32° ENE 23:39:13 18° ESE
Cosmos 1486 Rocket 3.9 23:31:57 10° NNW 23:37:12 86° ENE 23:39:34 34° SSE
Cosmos 1697 Rocket 4.0 23:33:30 10° NW 23:38:07 27° WSW 23:40:27 20° SW
Cosmos 2084 Rocket 3.7 23:34:51 10° NW 23:38:36 45° SW 23:39:10 41° SSW
USA 276 2.6 23:35:49 10° W 23:38:47 55° N 23:41:45 10° E
Cosmos 1821 Rocket 4.1 23:36:22 10° N 23:42:39 73° E 23:45:54 30° SSE
Cosmos 1992 Rocket 3.9 23:48:17 33° SSW 23:50:42 86° ESE 23:55:59 10° NNE
Cosmos 1408 4.4 23:49:23 17° WSW 23:50:52 22° WNW 23:53:39 10° NNW
Cosmos 807 4.5 23:51:15 10° NNW 23:54:32 53° W 23:54:43 52° WSW
